User: anonymous   Login
Location: Unspecified
(0.0000°N, 0.0000°E)
Time: 05:42:28
(UTC+00:00)
Language:

PROTOSTAR 1 - Orbit

View from above orbital plane
View from above orbital plane
View from above satellite
View from above satellite

Ground track
Ground track

The orbit is defined by the following mean orbital elements,

1 33153U          26145.27163715 +.00000000 +00000-0 +00000-0 0 00008
2 33153   2.6514  80.5777 0001483   9.8627 114.2285  0.99033116    02
Epoch (UTC): 25 May 2026 06:31:09
Eccentricity: 0.0001483
inclination: 2.6514°
perigee height: 36131 km
apogee height: 36144 km
right ascension of ascending node: 80.5777°
argument of perigee: 9.8627°
revolutions per day: 0.99033116
mean anomaly at epoch: 114.2285°

The dashed part of the orbit path shows where the satellite is in the earth's shadow,  

DLR